NOAA NWS Hourly Roundups by Site

Regional Weather Roundup for Omaha, NE

To Select Another Site Choose from List

Select Site:  

305
ASUS43 KOAX 231410
RWRNE

WEATHER ROUNDUP FOR NEBRASKA
NATIONAL WEATHER SERVICE OMAHA NE
800 AM CST SAT FEB 23 2019

NOTES: SATELLITE DATA IS BEING USED TO AUGMENT CLOUD COVER ABOVE
       12000 FEET.
       "FAIR" INDICATES FEW OR NO CLOUDS BELOW 12,000 FEET WITH NO
       SIGNIFICANT WEATHER AND/OR OBSTRUCTIONS TO VISIBILITY.


NEZ001>004-019>022-054>056-231500-
NEBRASKA PANHANDLE

CITY           SKY/WX    TMP DP  RH WIND       PRES   REMARKS
SCOTTSBLUFF    FAIR      17  15  92 W8        29.86R WCI   7
ALLIANCE       FAIR      16  13  88 NW10      29.82S WCI   4
CHADRON        FAIR       8   4  83 SW5       29.91R WCI   0
GORDON         FAIR      14  11  88 W6        29.85R WCI   5
KIMBALL        MOCLDY    19  17  93 NW10      29.81R WCI   7
SIDNEY         CLOUDY    20  17  88 NW13      29.83R WCI   7
$$

NEZ057>060-069>072-079>082-231500-
SOUTHWEST NEBRASKA

CITY           SKY/WX    TMP DP  RH WIND       PRES   REMARKS
NORTH PLATTE   CLOUDY    27  23  85 N7        29.85R FOG     WCI  19
IMPERIAL       FLURRIES  25  20  81 N15       29.83R WCI  13
LEXINGTON      CLOUDY    28  26  92 N8        29.82F FOG     WCI  19
MCCOOK         CLOUDY    28  27  96 N14       29.79F FOG     WCI  17
OGALLALA       CLOUDY    26  22  85 N3        29.85R
$$

NEZ005>010-023>029-035>040-094-231500-
NORTH CENTRAL NEBRASKA

CITY           SKY/WX    TMP DP  RH WIND       PRES   REMARKS
VALENTINE      CLOUDY    20  16  84 N8        29.88S FOG     WCI  10
AINSWORTH      CLOUDY    17  17  98 N6        29.86S FOG     WCI   9
BROKEN BOW     CLOUDY    27  25  92 N8        29.85R WCI  19
O`NEILL        CLOUDY    24  23  96 N7        29.88R FOG     WCI  16
ORD            CLOUDY    27  25  92 N5        29.86R FOG     WCI  22
THEDFORD       FAIR      23  22  95 NW8       29.85R FOG     WCI  14
$$

NEZ041-046>049-061>064-073>077-083>087-231500-
SOUTH CENTRAL NEBRASKA

CITY           SKY/WX    TMP DP  RH WIND       PRES   REMARKS
GRAND ISLAND   FOG       28  27  96 N12       29.83F VSB<1/4 WCI  18
AURORA         FOG       28  28 100 N7        29.84F VSB<1/4 WCI  21
HASTINGS       FOG       29  28  96 N9        29.82F VSB<1/4 WCI  20
HEBRON         FOG       32  32 100 NE8       29.81F VSB 3/4 WCI  25
HOLDREGE       FOG       27  27 100 NE8       29.81F VSB 1/2 WCI  19
KEARNEY        FOG       27  26  96 N9        29.83F VSB 1/4 WCI  18
YORK           FOG       28  28 100 CALM      29.85S VSB<1/4
$$

NEZ011>018-030>034-042>045-231500-
NORTHEAST NEBRASKA

CITY           SKY/WX    TMP DP  RH WIND       PRES   REMARKS
NORFOLK        CLOUDY    25  25 100 CALM      29.88R FOG
ALBION         CLOUDY    27  26  96 CALM      29.89R FOG
BLAIR          FOG       31  30  98 NE6       29.86R VSB<1/4 WCI  25
COLUMBUS       FOG       28  27  96 N5        29.89R VSB 3/4 WCI  23
FREMONT        FOG       32  32 100 CALM      29.88R VSB 1/2
TEKAMAH        FOG       30  30 100 N8        29.88F VSB 1/4 WCI  22
WAYNE          FOG       26  22  85 CALM      29.88S VSB 1/2
$$

NEZ050>053-065>068-078-088>093-231500-
SOUTHEAST NEBRASKA

CITY           SKY/WX    TMP DP  RH WIND       PRES   REMARKS
LINCOLN        FOG       32  31  96 N10       29.87R VSB 3/4 WCI  24
OMAHA EPPLEY   FRZ DRZL  32  29  88 NW9       29.87R VSB 1   WCI  24
BEATRICE       FOG       33  33 100 NE7       29.83F VSB 1/2 WCI  27
FALLS CITY     FOG       33  33 100 E5        29.84S VSB 1/2 WCI  29
NEBRASKA CITY  FOG       33  33 100 NE3       29.84S VSB 1/4
PLATTSMOUTH    FOG       32  32  99 N3        29.85R VSB 1/2
$$

NEZ044-045-051>053-067-231500-
OMAHA AREA

CITY           SKY/WX    TMP DP  RH WIND       PRES   REMARKS
OMAHA EPPLEY   FRZ DRZL  32  29  88 NW9       29.87R VSB 1   WCI  24
BLAIR          FOG       31  30  98 NE6       29.86R VSB<1/4 WCI  25
FREMONT        FOG       32  32 100 CALM      29.88R VSB 1/2
MILLARD        FOG       33  32  98 NW6       29.86S VSB 1   WCI  27
OFFUTT AFB     CLOUDY    32  32 100 N5        29.86R FOG     WCI  27
PLATTSMOUTH    FOG       32  32  99 N3        29.85R VSB 1/2
WAHOO          FOG       31  31 100 N7        29.88R VSB 3/4 WCI  24
$$



 

View Past Reports for Omaha, NE.

Products Courtesy of NOAA-NWS
NWS Information Parsing Script by Ken True at Saratoga Weather - Script by SE Lincoln Weather.